Вернуться в каталог

HULIANWANG DIGUI-21

АктивенСвязьPO
NORAD 63688·PAYLOAD·🇨🇳 China

Запущен Apr 28, 2025 с Wenchang Space Launch Site

Loading…

Ближайшие Пролёты (ближайшие 24 часа)

TLE

СвежийSource: Space-Track

Эпоха: Sep 14, 2026, 13:22 UTC

1 63688U 25086B   26257.55700059  .00000062  00000-0  11148-3 0  9991
2 63688  86.5018 283.1084 0002087  81.1507 278.9863 13.24413418 66697

Отслеживайте HULIANWANG DIGUI-21 в реальном времени с AllMySat

Download on the App Store